Погода в Бильтой-Юрте

Россия / Чеченская Республика     43°17′09″N   46°19′01″E
темп.,
°C
ветер,
м/с
пор.,
м/с
влажн.,
%
обл.,
%
осадки,
мм/ч
давл.,
гПа
погр.,
м
28 сентября, вт
вт2800:00+14юз2476100 0.0 1017185
03:00+14з1171100 0.0 101723
06:00+13всв0069100 0.0 101812
09:00+14всв1265100 0.0 1018326
12:00+16всв225791 0.0 1018769
15:00+16вюв1257100 0.0 1019623
18:00+14ююз2269100 0.1 102162
21:00+13юз1169100 0.1 102124
29 сентября, ср
ср2900:00+12всв1275100 0.0 1022128
03:00+12в1172100 0.0 102233
06:00+12в1173100 0.0 102240
09:00+13всв2471100 0.0 1023398
12:00+14всв566295 0.0 1022898
15:00+14всв4557100 0.0 1022994
18:00+13в3663100 0.1 1023402
21:00+12в2670100 0.2 1024387
30 сентября, чт
чт3000:00+11в2584100 0.4 1024373
03:00+10св2489100 1.0 1025345
06:00+10св2596100 1.6 1026403
09:00+9всв3693100 2.6 1027416
12:00+10в2583100 0.1 1027413
15:00+10св2583100 0.1 1027426
18:00+9всв2492100 0.0 1027330
21:00+9всв2597100 0.8 1027356
1 октября, пт
пт100:00+10всв3896100 1.5 1027471
03:00+10всв4995100 2.3 1026599
06:00+10в51090100 0.1 1026556
09:00+12в61084100 0.1 1026746
12:00+12в7982100 0.2 1025799
15:00+11в61091100 1.3 1025595
18:00+11в4893100 0.4 1026429
21:00+11в3692100 0.5 1027370
2 октября, сб
сб200:00+11в3691100 0.2 1027357
03:00+10зюз1291100 0.2 1027126
06:00+10сз1188100 0.0 102722
09:00+13с127666 0.0 1027536
12:00+17в555273 0.0 10251431
15:00+16в675896 0.0 10251003
18:00+13всв597599 0.0 1026482
21:00+11в25859 0.0 1026153